Simultaneous Nadir Overpasses (SNOs) Predictions

Prediction of SNOs between GOES-15 and NPP Satellite Orbit:

Table of predicted SNOs for the next 14.0 days since TLE Epoch: 8/7/2021
Index Date Time (GOES-15) GOES-15 Lat,Lon NPP Lat,Lon Distance(km) Time Diff (sec)
1 08/07/2021 10:12:03 -0.19,-128.08 0.68,-131.98 444.68 80
2 08/08/2021 09:55:59 -0.18,-128.10 -0.31,-127.45 73.93 80
3 08/10/2021 21:56:33 0.19,-128.05 0.16,-128.23 20.39 80
4 08/11/2021 21:40:28 0.18,-128.07 1.15,-123.69 497.82 80
5 08/13/2021 09:59:38 -0.20,-128.18 -0.02,-128.98 90.49 80
6 08/14/2021 09:43:34 -0.19,-128.20 -1.06,-124.45 427.45 80
7 08/15/2021 22:02:51 0.22,-128.12 -0.13,-129.76 186.29 80
8 08/16/2021 21:46:47 0.21,-128.13 0.86,-125.22 330.92 80
9 08/18/2021 10:05:56 -0.23,-128.23 0.27,-130.50 259.29 80
10 08/19/2021 09:49:52 -0.23,-128.23 -0.72,-125.97 257.72 80
11 08/20/2021 22:09:09 0.25,-128.15 -0.47,-131.28 356.59 80
